Location: Rodanthe
(35.5920°N, 75.4670°W)
Time: 02:00:27
(UTC-04:00)

ISS - All Passes

Search period start: 30 August 2015 00:00
Search period end: 09 September 2015 00:00
Orbit: 399 x 401 km, 51.6° (Epoch: 29 August)

Date Brightness Start Highest point End Pass type
(mag) Time Alt. Az. Time Alt. Az. Time Alt. Az.
30 Aug - 09:15:16 10° SSW 09:18:25 54° SE 09:21:37 10° ENE daylight
30 Aug - 10:52:53 10° WNW 10:55:04 16° NNW 10:57:12 10° NNE daylight
30 Aug - 15:45:31 10° NNW 15:47:59 20° NNE 15:50:30 10° E daylight
30 Aug - 17:21:27 10° WNW 17:24:29 38° SW 17:27:30 10° SSE daylight
31 Aug - 08:22:16 10° S 08:24:55 24° SE 08:27:38 10° ENE daylight
31 Aug - 09:58:25 10° W 10:01:15 27° NW 10:04:05 10° NNE daylight
31 Aug - 14:52:37 10° N 14:54:07 13° NNE 14:55:42 10° NE daylight
31 Aug - 16:27:41 10° NW 16:30:56 90° WSW 16:34:11 10° SE daylight
01 Sep - 07:30:27 10° SE 07:31:27 11° SE 07:32:34 10° ESE daylight
01 Sep - 09:04:21 10° WSW 09:07:31 54° NW 09:10:43 10° NE daylight
01 Sep - 15:34:10 10° NW 15:37:16 41° NE 15:40:21 10° ESE daylight
01 Sep - 17:11:26 10° W 17:13:26 15° SW 17:15:19 10° SSW daylight
02 Sep - 08:10:40 10° SW 08:13:52 65° SE 08:17:05 10° NE daylight
02 Sep - 09:48:34 10° WNW 09:50:34 15° NNW 09:52:30 10° N daylight
02 Sep - 14:40:50 10° NNW 14:43:28 22° NNE 14:46:06 10° E daylight
02 Sep - 16:16:57 10° WNW 16:19:53 32° SW 16:22:49 10° SSE daylight
03 Sep - 07:17:27 10° SSW 07:20:16 28° SE 07:23:07 10° ENE daylight
03 Sep - 08:53:55 10° W 08:56:39 24° NNW 08:59:22 10° NNE daylight
03 Sep - 13:47:46 10° N 13:49:31 14° NNE 13:51:20 10° ENE daylight
03 Sep - 15:23:02 10° NW 15:26:16 76° SW 15:29:30 10° SE daylight
04 Sep - 06:25:09 10° SSE 06:26:42 13° SE 06:28:22 10° E daylight
04 Sep - 07:59:40 10° WSW 08:02:48 46° NW 08:05:57 10° NE daylight
04 Sep - 14:29:23 10° NW 14:32:32 47° NE 14:35:40 10° ESE daylight
04 Sep - 16:07:01 10° W 16:08:38 13° SW 16:10:08 10° SSW daylight
05 Sep - 07:05:49 10° SW 07:09:02 78° SE 07:12:17 10° NE daylight
05 Sep - 08:44:01 10° WNW 08:45:48 14° NNW 08:47:32 10° N daylight
05 Sep - 13:35:56 10° NNW 13:38:39 25° NNE 13:41:24 10° E daylight
05 Sep - 15:12:12 10° WNW 15:15:01 27° SW 15:17:49 10° SSE daylight
06 Sep - 06:12:25 10° SSW 06:15:20 32° SE 06:18:18 10° ENE visible
06 Sep - 07:49:09 10° W 07:51:46 22° NNW 07:54:23 10° NNE daylight
06 Sep - 12:42:42 10° N 12:44:39 15° NNE 12:46:39 10° ENE daylight
06 Sep - 14:18:07 10° NW 14:21:20 64° SW 14:24:32 10° SE daylight
07 Sep - 05:19:46 10° SSE 05:21:41 15° SE 05:23:41 10° E visible
07 Sep - 06:54:45 10° WSW 06:57:50 40° NW 07:00:55 10° NE daylight
07 Sep - 13:24:20 10° NW 13:27:32 54° NE 13:30:42 10° ESE daylight
07 Sep - 15:02:31 10° WSW 15:03:35 11° SW 15:04:31 10° SW daylight
08 Sep - 06:00:44 10° SW 06:03:57 90° WSW 06:07:13 10° NE visible
08 Sep - 07:39:13 10° NW 07:40:46 13° NNW 07:42:16 10° N daylight
08 Sep - 12:30:45 10° NNW 12:33:35 27° NE 12:36:26 10° E daylight
08 Sep - 14:07:12 10° WNW 14:09:54 24° SW 14:12:33 10° S daylight
